N4YHC Weather Reports


Display with metric or nautical units.
time (UTC)temp
F
wind
direction
speed
MPH
gust
MPH
rain 1hr
in
rain 24hr
in
rain mn
in
humidity
%
barometer
mb
20260508230955 67 219 2.0 7.0 0.00 0.00 0.00 48 1008.7
20260508230428 67 206 3.0 7.0 0.00 0.00 0.00 47 1008.7
20260508225414 67 226 2.0 4.0 0.00 0.00 0.00 48 1008.5
20260508224947 67 278 0.0 2.0 0.00 0.00 0.00 49 1008.6
20260508224420 67 239 0.0 7.0 0.00 0.00 0.00 48 1008.6
20260508223953 67 213 3.0 8.0 0.00 0.00 0.00 47 1008.6
20260508223410 67 180 6.0 8.0 0.00 0.00 0.00 48 1008.5
20260508222459 68 206 2.0 4.0 0.00 0.00 0.00 50 1008.4
20260508221448 69 218 2.0 5.0 0.00 0.00 0.00 48 1008.4
20260508220921 69 245 1.0 5.0 0.00 0.00 0.00 48 1008.4
20260508220456 68 237 3.0 7.0 0.00 0.00 0.00 47 1008.3
20260508214944 69 246 4.0 10.0 0.00 0.00 0.00 45 1008.5
20260508214416 69 223 3.0 9.0 0.00 0.00 0.00 45 1008.5
20260508212942 71 227 3.0 12.0 0.00 0.00 0.00 43 1008.5
20260508211931 70 241 7.0 11.0 0.00 0.00 0.00 42 1008.6
20260508210927 70 255 3.0 8.0 0.00 0.00 0.00 46 1008.6
20260508205936 70 211 5.0 8.0 0.00 0.00 0.00 46 1008.9
20260508205409 71 280 1.0 9.0 0.00 0.00 0.00 47 1009.0
20260508204459 71 213 2.0 10.0 0.00 0.00 0.00 43 1009.1
20260508203931 71 257 5.0 10.0 0.00 0.00 0.00 45 1009.2
20260508202927 71 239 5.0 10.0 0.00 0.00 0.00 42 1009.4
20260508202502 71 231 4.0 11.0 0.00 0.00 0.00 42 1009.3
20260508201935 70 235 7.0 11.0 0.00 0.00 0.00 43 1009.4
20260508200945 69 202 8.0 11.0 0.00 0.00 0.00 42 1009.8
20260508200458 69 241 5.0 10.0 0.00 0.00 0.00 42 1009.8
20260508194908 69 231 3.0 12.0 0.00 0.00 0.00 43 1009.9
20260508194441 69 212 5.0 12.0 0.00 0.00 0.00 42 1010.0
20260508193913 70 214 6.0 12.0 0.00 0.00 0.00 39 1009.9
20260508193447 70 197 4.0 12.0 0.00 0.00 0.00 43 1009.9
20260508192436 69 203 5.0 10.0 0.00 0.00 0.00 40 1010.0
20260508191432 69 230 6.0 13.0 0.00 0.00 0.00 44 1010.3
20260508191006 69 230 12.0 13.0 0.00 0.00 0.00 42 1010.2
20260508190439 69 226 8.0 12.0 0.00 0.00 0.00 41 1010.3
20260508185909 69 232 6.0 14.0 0.00 0.00 0.00 42 1010.4
20260508185443 69 228 7.0 14.0 0.00 0.00 0.00 41 1010.5
20260508184916 69 280 9.0 12.0 0.00 0.00 0.00 42 1010.5
20260508183910 69 232 11.0 15.0 0.00 0.00 0.00 43 1010.7
20260508183444 69 285 8.0 11.0 0.00 0.00 0.00 45 1010.9
20260508182917 68 228 5.0 10.0 0.00 0.00 0.00 42 1010.8
20260508182451 69 241 4.0 11.0 0.00 0.00 0.00 45 1011.1
20260508181924 69 233 6.0 11.0 0.00 0.00 0.00 45 1011.1
20260508181457 69 208 3.0 13.0 0.00 0.00 0.00 46 1011.1
20260508175907 69 234 8.0 11.0 0.00 0.00 0.00 43 1011.3
20260508175441 68 224 2.0 11.0 0.00 0.00 0.00 53 1011.2
20260508174914 68 251 4.0 11.0 0.00 0.00 0.00 44 1011.2
20260508174448 68 241 7.0 11.0 0.00 0.00 0.00 44 1011.4
20260508173921 68 223 7.0 10.0 0.00 0.00 0.00 50 1011.6
20260508173454 68 215 7.0 15.0 0.00 0.00 0.00 45 1011.6
20260508171926 67 237 7.0 15.0 0.00 0.00 0.00 44 1012.1
20260508171500 67 220 9.0 12.0 0.00 0.00 0.00 45 1012.2
20260508170932 67 251 6.0 12.0 0.00 0.00 0.00 46 1012.3
20260508170506 67 224 3.0 15.0 0.00 0.00 0.00 47 1012.3
20260508165916 66 258 8.0 15.0 0.00 0.00 0.00 46 1012.3
20260508165006 66 243 9.0 10.0 0.00 0.00 0.00 48 1012.6
20260508164439 66 249 8.0 11.0 0.00 0.00 0.00 47 1012.9
20260508163436 66 288 2.0 10.0 0.00 0.00 0.00 51 1013.0
20260508162001 65 203 4.0 11.0 0.00 0.00 0.00 50 1013.1
20260508161434 65 166 8.0 11.0 0.00 0.00 0.00 48 1013.2
20260508160907 65 221 6.0 15.0 0.00 0.00 0.00 49 1013.2
20260508160441 65 242 7.0 15.0 0.00 0.00 0.00 47 1013.2
20260508155937 65 245 6.0 10.0 0.00 0.00 0.00 52 1013.3
20260508154947 65 264 4.0 12.0 0.00 0.00 0.00 51 1013.4
20260508154419 64 231 7.0 12.0 0.00 0.00 0.00 52 1013.5
20260508153408 63 228 5.0 11.0 0.00 0.00 0.00 52 1013.8
20260508151952 63 199 9.0 12.0 0.00 0.00 0.00 52 1013.9
20260508151408 63 235 7.0 12.0 0.00 0.00 0.00 55 1014.0
20260508150943 62 212 6.0 12.0 0.00 0.00 0.00 52 1014.1
20260508150416 62 232 5.0 13.0 0.00 0.00 0.00 53 1014.2
20260508145947 61 234 8.0 13.0 0.00 0.00 0.00 53 1014.1
20260508144957 61 245 7.0 11.0 0.00 0.00 0.00 54 1014.0
20260508144430 61 230 4.0 11.0 0.00 0.00 0.00 55 1014.0
20260508144004 60 243 5.0 11.0 0.00 0.00 0.00 57 1014.2
20260508142413 59 178 5.0 8.0 0.00 0.00 0.00 59 1014.2
20260508142006 58 230 1.0 8.0 0.00 0.00 0.00 61 1014.2
20260508141438 58 204 3.0 9.0 0.00 0.00 0.00 61 1014.3
20260508140448 57 246 6.0 11.0 0.00 0.00 0.00 62 1014.3
20260508134939 55 243 5.0 6.0 0.00 0.00 0.00 66 1014.5
20260508133949 53 244 4.0 8.0 0.00 0.00 0.00 67 1014.4
20260508132938 52 246 3.0 7.0 0.00 0.00 0.00 69 1014.5
20260508132411 52 189 3.0 7.0 0.00 0.00 0.00 69 1014.5
20260508131501 51 193 4.0 7.0 0.00 0.00 0.00 69 1014.5
20260508130918 51 183 3.0 6.0 0.00 0.00 0.00 70 1014.5
20260508130452 50 216 3.0 8.0 0.00 0.00 0.00 71 1014.4
20260508125921 50 201 5.0 8.0 0.00 0.00 0.00 70 1014.3
20260508125456 50 236 4.0 6.0 0.00 0.00 0.00 71 1014.5
20260508124929 49 243 4.0 7.0 0.00 0.00 0.00 72 1014.4
20260508123958 49 226 3.0 7.0 0.00 0.00 0.00 73 1014.3
20260508123414 48 213 4.0 5.0 0.00 0.00 0.00 73 1014.4
20260508122948 48 193 3.0 4.0 0.00 0.00 0.00 74 1014.3
20260508121937 47 218 3.0 4.0 0.00 0.00 0.00 77 1014.2
20260508121410 46 241 0.0 3.0 0.00 0.00 0.00 78 1014.1
20260508120419 45 257 1.0 5.0 0.00 0.00 0.00 79 1014.2
20260508115930 45 228 3.0 5.0 0.00 0.00 0.00 80 1014.3
20260508115504 45 243 0.0 2.0 0.00 0.00 0.00 81 1014.2
20260508114455 43 243 0.0 0.0 0.00 0.00 0.00 82 1014.0
20260508113928 43 243 0.0 2.0 0.00 0.00 0.00 83 1014.1
20260508112432 42 243 0.0 0.0 0.00 0.00 0.00 84 1014.0
20260508112006 42 243 0.0 0.0 0.00 0.00 0.00 84 1014.0
20260508111439 42 243 0.0 0.0 0.00 0.00 0.00 84 1013.9
20260508105001 42 243 0.0 0.0 0.00 0.00 0.00 84 1013.8
20260508104434 42 243 0.0 0.0 0.00 0.00 0.00 84 1013.7
20260508103907 42 243 0.0 0.0 0.00 0.00 0.00 84 1013.7
20260508103441 42 243 0.0 0.0 0.00 0.00 0.00 85 1013.7
20260508102438 42 243 0.0 0.0 0.00 0.00 0.00 85 1013.8
20260508101911 42 243 0.0 0.0 0.00 0.00 0.00 85 1013.7
20260508101444 42 243 0.0 0.0 0.00 0.00 0.00 85 1013.6
20260508100918 42 243 0.0 0.0 0.00 0.00 0.00 85 1013.7
20260508100450 42 243 0.0 0.0 0.00 0.00 0.00 86 1013.7
20260508093934 41 243 0.0 0.0 0.00 0.00 0.00 86 1013.5
20260508093407 41 243 0.0 0.0 0.00 0.00 0.00 86 1013.5
20260508092456 41 243 0.0 0.0 0.00 0.00 0.00 86 1013.5
20260508091928 41 243 0.0 0.0 0.00 0.00 0.00 86 1013.5
20260508091502 41 243 0.0 0.0 0.00 0.00 0.00 86 1013.4
20260508090935 41 243 0.0 0.0 0.00 0.00 0.00 86 1013.4
20260508085908 41 243 0.0 0.0 0.00 0.00 0.00 85 1013.5
20260508085442 41 243 0.0 0.0 0.00 0.00 0.00 85 1013.4
20260508084431 41 243 0.0 0.0 0.00 0.00 0.00 86 1013.3
20260508082431 42 243 0.0 0.0 0.00 0.00 0.00 85 1013.3
20260508082005 42 243 0.0 0.0 0.00 0.00 0.00 84 1013.3
20260508080958 42 243 0.0 0.0 0.00 0.00 0.00 84 1013.3
20260508080432 42 243 0.0 0.0 0.00 0.00 0.00 84 1013.4
20260508080003 42 243 0.0 0.0 0.00 0.00 0.00 83 1013.3
20260508074952 42 243 0.0 0.0 0.00 0.00 0.00 82 1013.3
20260508073941 43 243 0.0 0.0 0.00 0.00 0.00 82 1013.4
20260508072938 42 243 0.0 0.0 0.00 0.00 0.00 83 1013.1
20260508072411 42 243 0.0 0.0 0.00 0.00 0.00 83 1013.2
20260508071945 42 243 0.0 0.0 0.00 0.00 0.00 84 1013.2
20260508064942 43 243 0.0 0.0 0.00 0.00 0.00 83 1013.8
20260508064414 43 243 0.0 0.0 0.00 0.00 0.00 83 1014.0
20260508063424 43 243 0.0 0.0 0.00 0.00 0.00 83 1013.9
20260508062958 43 243 0.0 0.0 0.00 0.00 0.00 82 1014.0
20260508061431 43 243 0.0 0.0 0.00 0.00 0.00 82 1014.2
20260508061004 43 243 0.0 0.0 0.00 0.00 0.00 82 1014.2
20260508060437 43 243 0.0 0.0 0.00 0.00 0.00 81 1014.1
20260508055925 43 243 0.0 0.0 0.00 0.00 0.00 81 1014.1
20260508055412 43 243 0.0 0.0 0.00 0.00 0.00 81 1014.1
20260508054920 43 243 0.0 0.0 0.00 0.00 0.00 81 1014.2
20260508054408 43 243 0.0 0.0 0.00 0.00 0.00 81 1014.2
20260508053916 44 243 0.0 0.0 0.00 0.00 0.00 81 1014.2
20260508053408 44 243 0.0 0.0 0.00 0.00 0.00 81 1014.1
20260508052916 44 243 0.0 0.0 0.00 0.00 0.00 80 1014.1
20260508052424 44 243 0.0 0.0 0.00 0.00 0.00 80 1014.1
20260508051912 44 243 0.0 0.0 0.00 0.00 0.00 79 1014.1
20260508051420 44 243 0.0 0.0 0.00 0.00 0.00 78 1014.1
20260508050908 44 243 0.0 0.0 0.00 0.00 0.00 78 1014.0
20260508045922 45 243 0.0 0.0 0.00 0.00 0.00 77 1014.1
20260508045409 45 243 0.0 0.0 0.00 0.00 0.00 76 1014.1
20260508044407 45 243 0.0 0.0 0.00 0.00 0.00 75 1014.2
20260508043919 46 243 0.0 0.0 0.00 0.00 0.00 74 1014.2
20260508043407 46 243 0.0 0.0 0.00 0.00 0.00 73 1014.2
20260508042915 46 243 0.0 0.0 0.00 0.00 0.00 73 1014.3
20260508041912 46 243 0.0 0.0 0.00 0.00 0.00 72 1014.0
20260508040912 46 243 0.0 0.0 0.00 0.00 0.00 73 1013.8
20260508040420 46 243 0.0 0.0 0.00 0.00 0.00 73 1013.9
20260508035441 46 243 0.0 0.0 0.00 0.00 0.00 73 1014.0
20260508034411 46 243 0.0 0.0 0.00 0.00 0.00 74 1013.9
20260508033944 46 243 0.0 0.0 0.00 0.00 0.00 74 1014.0
20260508033414 46 243 0.0 0.0 0.00 0.00 0.00 73 1014.0
20260508032946 46 243 0.0 0.0 0.00 0.00 0.00 74 1014.0
20260508032459 46 243 0.0 0.0 0.00 0.00 0.00 75 1014.0
20260508031930 46 243 0.0 0.0 0.00 0.00 0.00 78 1013.9
20260508030925 46 243 0.0 0.0 0.00 0.00 0.00 76 1013.9
20260508030500 46 243 0.0 0.0 0.00 0.00 0.00 76 1013.9
20260508025930 46 243 0.0 0.0 0.00 0.00 0.00 77 1014.0
20260508024959 47 243 0.0 0.0 0.00 0.00 0.00 75 1013.8
20260508023947 47 243 0.0 0.0 0.00 0.00 0.00 75 1013.9
20260508023438 47 243 0.0 0.0 0.00 0.00 0.00 76 1013.8
20260508022435 47 243 0.0 0.0 0.00 0.00 0.00 76 1013.6
20260508021423 47 243 0.0 0.0 0.00 0.00 0.00 75 1013.7
20260508020957 48 243 0.0 0.0 0.00 0.00 0.00 74 1013.7
20260508015945 48 243 0.0 0.0 0.00 0.00 0.00 73 1013.7
20260508015500 48 243 0.0 0.0 0.00 0.00 0.00 73 1013.8
20260508014933 48 243 0.0 0.0 0.00 0.00 0.00 71 1013.6
20260508013928 49 243 0.0 0.0 0.00 0.00 0.00 71 1013.5
20260508013502 49 243 0.0 0.0 0.00 0.00 0.00 70 1013.5
20260508012935 49 243 0.0 0.0 0.00 0.00 0.00 69 1013.5
20260508012407 49 243 0.0 0.0 0.00 0.00 0.00 69 1013.5
20260508011941 50 243 0.0 0.0 0.00 0.00 0.00 68 1013.4
20260508010928 51 243 0.0 0.0 0.00 0.00 0.00 66 1013.3
20260508010003 51 243 0.0 0.0 0.00 0.00 0.00 62 1013.4
20260508004952 52 243 0.0 0.0 0.00 0.00 0.00 61 1013.4
20260508004424 53 243 0.0 0.0 0.00 0.00 0.00 59 1013.3
20260508003958 54 243 0.0 0.0 0.00 0.00 0.00 59 1013.3
20260508003430 55 243 0.0 0.0 0.00 0.00 0.00 56 1013.3
20260508003005 56 243 0.0 0.0 0.00 0.00 0.00 54 1013.2
20260508002421 57 243 0.0 0.0 0.00 0.00 0.00 51 1013.2
20260508001955 57 243 0.0 0.0 0.00 0.00 0.00 47 1013.2
20260508000943 57 243 0.0 2.0 0.00 0.00 0.00 45 1013.1
20260508000415 58 243 1.0 2.0 0.00 0.00 0.00 44 1013.1
20260507235926 58 287 0.0 1.0 0.00 0.00 0.00 46 1013.1
20260507235459 58 287 1.0 2.0 0.00 0.00 0.00 43 1013.0
20260507234932 58 293 1.0 4.0 0.00 0.00 0.00 42 1013.0
20260507234506 58 296 2.0 4.0 0.00 0.00 0.00 41 1013.0
20260507233922 58 286 2.0 3.0 0.00 0.00 0.00 42 1013.0
20260507233457 58 229 1.0 5.0 0.00 0.00 0.00 42 1012.9
20260507232929 59 208 3.0 5.0 0.00 0.00 0.00 41 1012.9
20260507232501 59 210 3.0 7.0 0.00 0.00 0.00 40 1013.0
20260507231934 59 230 5.0 7.0 0.00 0.00 0.00 41 1012.9
20260507231407 59 278 1.0 5.0 0.00 0.00 0.00 37 1012.9